Skip to main content.
 TIME   TEMPERATURE   WINDSPEED   DIRECTION   HUMIDITY   BAROMETER   RAINFALL 
17:26 31.0°C (87.8°F) 14.8 kmh (9.2 mph) ENE 52% 1015.9hPa (30.00 inHg) 0.0mm (0.00 in.)
16:26 32.0°C (89.6 °F) 14.8 kmh (9.2 mph) ENE 49% 1015.9hPa (30.00 inHg) 0.0mm (0.00 in.)
15:26 34.0°C (93.2 °F) 11.1 kmh (6.9 mph) W 34% 1015.9hPa (30.00 inHg) 0.0mm (0.00 in.)
14:26 33.0°C (91.4 °F) 13.0 kmh (8.1 mph) NW 36% 1016.9hPa (30.03 inHg) 0.0mm (0.00 in.)
13:26 32.0°C (89.6 °F) 14.8 kmh (9.2 mph) WNW 38% 1016.9hPa (30.03 inHg) 0.0mm (0.00 in.)
12:26 32.0°C (89.6 °F) 16.7 kmh (10.4 mph) NNW 43% 1016.9hPa (30.03 inHg) 0.0mm (0.00 in.)
11:26 31.0°C (87.8 °F) 16.7 kmh (10.4 mph) NW 45% 1016.9hPa (30.03 inHg) 0.0mm (0.00 in.)
10:26 31.0°C (87.8 °F) 14.8 kmh (9.2 mph) NW 43% 1016.9hPa (30.03 inHg) 0.0mm (0.00 in.)
9:26 29.0°C (84.2 °F) 13.0 kmh (8.1 mph) NW 58% 1016.9hPa (30.03 inHg) 0.0mm (0.00 in.)
8:26 27.0°C (80.6 °F) 9.3 kmh (5.8 mph) NNW 74% 1016.9hPa (30.03 inHg) 0.0mm (0.00 in.)
7:26 24.0°C (75.2 °F) 7.4 kmh (4.6 mph) NW 83% 1015.9hPa (30.00 inHg) 0.0mm (0.00 in.)
6:26 23.0°C (73.4 °F) 3.7 kmh (2.3 mph) WNW 83% 1015.9hPa (30.00 inHg) 0.0mm (0.00 in.)
5:26 23.0°C (73.4 °F) 3.7 kmh (2.3 mph) NW 78% 1015.9hPa (30.00 inHg) 0.0mm (0.00 in.)
4:26 24.0°C (75.2 °F) 11.1 kmh (6.9 mph) WSW 69% 1015.9hPa (30.00 inHg) 0.0mm (0.00 in.)
3:26 24.0°C (75.2 °F) 9.3 kmh (5.8 mph) W 78% 1015.9hPa (30.00 inHg) 0.0mm (0.00 in.)
2:26 24.0°C (75.2 °F) 7.4 kmh (4.6 mph) NW 78% 1015.9hPa (30.00 inHg) 0.0mm (0.00 in.)
1:26 25.0°C (77.0 °F) 9.3 kmh (5.8 mph) W 78% 1015.9hPa (30.00 inHg) 0.0mm (0.00 in.)
0:26 25.0°C (77.0 °F) 5.6 kmh (3.5 mph) W 73% 1016.9hPa (30.03 inHg) 0.0mm (0.00 in.)
23:26 26.0°C (78.8 °F) 5.6 kmh (3.5 mph) WSW 69% 1016.9hPa (30.03 inHg) 0.0mm (0.00 in.)
22:26 26.0°C (78.8 °F) 5.6 kmh (3.5 mph) W 65% 1016.9hPa (30.03 inHg) 0.0mm (0.00 in.)
21:26 27.0°C (80.6 °F) 5.6 kmh (3.5 mph) WSW 57% 1015.9hPa (30.00 inHg) 0.0mm (0.00 in.)
20:26 28.0°C (82.4 °F) 5.6 kmh (3.5 mph) W 48% 1015.9hPa (30.00 inHg) 0.0mm (0.00 in.)
19:26 30.0°C (86.0 °F) 11.1 kmh (6.9 mph) W 45% 1015.9hPa (30.00 inHg) 0.0mm (0.00 in.)
18:26 31.0°C (87.8 °F) 9.3 kmh (5.8 mph) WNW 45% 1015.9hPa (30.00 inHg) 0.0mm (0.00 in.)